Zurück zum Katalog

METEOR 2-8 DEB

AktivPO
NORAD 36343·DEBRIS·🇷🇺 Russia

Gestartet Mar 25, 1982 von Plesetsk Cosmodrome

Loading…

Nächste Überflüge (nächste 24 Stunden)

TLE

AlterndSource: Space-Track

Epoche: Sep 8, 2026, 09:58 UTC

1 36343U 82025AD  26251.41553492  .00002336  00000-0  96299-3 0  9997
2 36343  82.5071 128.0097 0014567 331.8148  28.2246 14.26469701668938

Verfolge METEOR 2-8 DEB in Echtzeit mit AllMySat

Download on the App Store